Home > Time Zones > World Clock > Weather > Japan > Kobe > Past weeks

Flag for Japan Weather past 2 weeks in Kobe, Japan

Now
63 °F

Passing clouds.


Feels Like: 63 °F
Forecast: 61 / 74 °F
Wind: 5 mph from Northwest

Location: Osaka International Airport

Current Time: Sep 19, 2014 at 5:49:18 AM

Latest Report: Sep 19, 2014 at 5:00 AM


Visibility: N/A

Pressure: 29.98 "Hg

Humidity: 77%

Dew point: 55 °F

Location of KobeLocation

Historic Weather in Kobe — Graph

°F

Kobe temperature yesterday

Maximum temperature yesterday: 77 °F (at 3:00 PM)
Minimum temperature yesterday: 66 °F (at 5:00 AM)
Average temperature yesterday: 72 °F

Past Weeks' High & Low Weather Summary

 TemperatureHumidityPressure
High88 °F (Sep 6, 1:00 PM)100% (Sep 11, 5:00 AM)29.98 "Hg (Sep 11, 5:00 AM)
Low63 °F (Sep 12, 5:00 AM)31% (Sep 10, 2:00 PM)29.59 "Hg (Sep 8, 2:00 PM)
Average77 °F62%29.84 "Hg
* Reported Sep 3 8:00 PM — Sep 18 8:00 PM, Kobe, Weather by CustomWeather, © 2014

Note: Actual official high and low records may vary slightly from our data, if they occured in-between our weather recording intervals... More about our weather records

Advertising

Kobe weather history for previous 24 hours

 ConditionsComfort  
Time TempWeatherWind HumidityBarometerVisibility
8:00 PM
Sep 18
70 °FPassing clouds.5 mph53%29.98 "HgN/A
7:00 PM70 °FPassing clouds.7 mph50%29.98 "HgN/A
6:00 PM72 °FBroken clouds.9 mph44%29.95 "HgN/A
5:00 PM73 °FPartly sunny.15 mph36%29.95 "HgN/A
4:00 PM73 °FPartly sunny.13 mph36%29.92 "HgN/A
3:00 PM77 °FBroken clouds.16 mph36%29.92 "HgN/A
2:00 PM73 °FBroken clouds.12 mph53%29.92 "HgN/A
1:00 PM73 °FBroken clouds.13 mph50%29.92 "HgN/A
12:00 PM75 °FBroken clouds.7 mph50%29.92 "HgN/A
11:00 AM75 °FBroken clouds.12 mph47%29.95 "HgN/A
10:00 AM75 °FBroken clouds.8 mph50%29.95 "HgN/A
9:00 AM73 °FPartly sunny.12 mph50%29.95 "HgN/A
8:00 AM72 °FBroken clouds.3 mph53%29.95 "HgN/A
7:00 AM70 °FPartly sunny.5 mph57%29.95 "HgN/A
6:00 AM66 °FScattered clouds.2 mph60%29.92 "HgN/A
5:00 AM66 °FPassing clouds.6 mph64%29.92 "HgN/A
Weather by CustomWeather, © 2014

See weather overviewHow to use our weather pages